Weather History for KDVT - January, 2013

Change the Weather History Date:

Monday, January 7, 2013

  Actual Average Record
Temperature  
Mean Temperature 48 °F -  
Max Temperature 59 °F 62 °F 80 °F (2015)
Min Temperature 36 °F 42 °F 34 °F (2007)
Degree Days  
Heating Degree Days 18    
Moisture  
Dew Point 25 °F    
Average Humidity 42    
Maximum Humidity 64    
Minimum Humidity 26    
Precipitation  
Precipitation 0.00 in - - ()
Sea Level Pressure  
Sea Level Pressure 29.88 in    
Wind  
Wind Speed 3 mph (SSW)    
Max Wind Speed 8 mph    
Max Gust Speed -    
Visibility 10 miles    
Events      
Averages and records for this station are not official NWS values.
T = Trace of Precipitation, MM = Missing Value Source: NWS Daily Summary

Daily Weather History Graph

Daily Weather History Graph

Search for Another Location

Airport or City:

Trip Planner

Search our weather history database for the weather conditions in past years. The results will help you decide how hot, cold, wet, or windy it might be!

Date:

Astronomy

Jan. 07, 2013 Rise Set
Actual Time 7:33 AM MST 5:36 PM MST
Civil Twilight 7:06 AM MST 6:03 PM MST
Nautical Twilight 6:35 AM MST 6:34 PM MST
Astronomical Twilight 6:05 AM MST 7:04 PM MST
Moon 3:04 AM MST (1/7) 1:47 PM MST (1/7)
Length of Visible Light 10h 57m
Length of Day
10h 02m
Waning Crescent, 22% of the Moon is Illuminated
Jan 7
Waning Crescent
Jan 11
New
Jan 18
First Quarter
Jan 26
Full
Feb 3
Last Quarter

Hourly Weather History & Observations

Time (MST) Temp. Windchill Dew Point Humidity Pressure Visibility Wind Dir Wind Speed Gust Speed Precip Events Conditions
12:53 AM 48.0 °F - 24.1 °F 39% 29.89 in 10.0 mi Calm Calm - N/A   Partly Cloudy
1:53 AM 43.0 °F 38.8 °F 25.0 °F 49% 29.89 in 10.0 mi ESE 6.9 mph - N/A   Clear
2:53 AM 43.0 °F 40.3 °F 24.1 °F 47% 29.88 in 10.0 mi East 4.6 mph - N/A   Clear
3:53 AM 39.9 °F 37.8 °F 25.0 °F 55% 29.89 in 10.0 mi SSE 3.5 mph - N/A   Clear
4:53 AM 39.9 °F - 24.1 °F 53% 29.88 in 10.0 mi Calm Calm - N/A   Clear
5:53 AM 36.0 °F - 25.0 °F 64% 29.89 in 10.0 mi Calm Calm - N/A   Clear
6:53 AM 37.0 °F - 24.1 °F 59% 29.90 in 10.0 mi Calm Calm - N/A   Clear
7:53 AM 39.0 °F - 25.0 °F 57% 29.91 in 10.0 mi Calm Calm - N/A   Clear
8:53 AM 44.1 °F 42.5 °F 24.1 °F 45% 29.92 in 10.0 mi NNE 3.5 mph - N/A   Clear
9:53 AM 48.0 °F - 26.1 °F 42% 29.93 in 10.0 mi West 3.5 mph - N/A   Clear
10:53 AM 52.0 °F - 24.1 °F 34% 29.93 in 10.0 mi Calm Calm - N/A   Clear
12:53 PM 55.9 °F - 25.0 °F 30% 29.86 in 10.0 mi Variable 4.6 mph - N/A   Clear
1:53 PM 57.9 °F - 24.1 °F 27% 29.83 in 10.0 mi Calm Calm - N/A   Clear
2:53 PM 59.0 °F - 25.0 °F 27% 29.83 in 10.0 mi WSW 4.6 mph - N/A   Clear
3:53 PM 59.0 °F - 24.1 °F 26% 29.83 in 10.0 mi West 8.1 mph - N/A   Clear
4:53 PM 57.9 °F - 25.0 °F 28% 29.85 in 10.0 mi WSW 6.9 mph - N/A   Clear
5:53 PM 55.0 °F - 26.1 °F 33% 29.87 in 10.0 mi SW 4.6 mph - N/A   Clear
6:53 PM 53.1 °F - 27.0 °F 37% 29.88 in 10.0 mi South 3.5 mph - N/A   Clear
7:53 PM 50.0 °F - 27.0 °F 41% 29.90 in 10.0 mi East 3.5 mph - N/A   Clear
8:53 PM 48.9 °F - 27.0 °F 43% 29.90 in 10.0 mi NNE 5.8 mph - N/A   Clear
9:53 PM 46.0 °F - 27.0 °F 47% 29.88 in 10.0 mi Calm Calm - N/A   Clear
10:53 PM 46.0 °F 43.1 °F 26.1 °F 46% 29.88 in 10.0 mi North 5.8 mph - N/A   Clear
11:53 PM 50.0 °F - 19.0 °F 29% 29.87 in 10.0 mi North 8.1 mph - N/A   Clear